This is the latest recevied weather packets stored in our database for station/object W7BTL. If no packets are shown the sender has not sent any weather packets the latest 10 day(s).
| Time | Temp. | Humidity | Pressure | Rain* | Wind** | Luminosity | Snow |
|---|---|---|---|---|---|---|---|
| 1787945593 | 36.67° C | 46% | 1011.2 hPa | 0 mm | - | 794 W/m² | - |
| 1787945292 | 36.67° C | 45% | 1011.3 hPa | 0 mm | - | 979 W/m² | - |
| 1787944989 | 36.11° C | 46% | 1011.2 hPa | 0 mm | - | 846 W/m² | - |
| 1787944685 | 35.56° C | 47% | 1011.2 hPa | 0 mm | - | 988 W/m² | - |
| 1787944381 | 35.56° C | 49% | 1011.3 hPa | 0 mm | - | 943 W/m² | - |
| 1787944075 | 35.56° C | 47% | 1011.3 hPa | 0 mm | - | 935 W/m² | - |
| 1787943771 | 35.56° C | 47% | 1011.3 hPa | 0 mm | - | 959 W/m² | - |
| 1787943466 | 35.56° C | 48% | 1011.6 hPa | 0 mm | - | 840 W/m² | - |
| 1787943162 | 35.56° C | 48% | 1011.7 hPa | 0 mm | - | 966 W/m² | - |
| 1787942856 | 35.56° C | 49% | 1011.5 hPa | 0 mm | - | 935 W/m² | - |
| 1787942552 | 35.56° C | 47% | 1011.6 hPa | 0 mm | - | 932 W/m² | - |
| 1787942251 | 35° C | 49% | 1011.7 hPa | 0 mm | - | 635 W/m² | - |
| 1787941946 | 35° C | 45% | 1011.7 hPa | 0 mm | - | 916 W/m² | - |
| 1787941645 | 35° C | 47% | 1011.6 hPa | 0 mm | - | 584 W/m² | - |
| 1787941340 | 35.56° C | 45% | 1011.9 hPa | 0 mm | - | 831 W/m² | - |
| 1787941039 | 35° C | 46% | 1011.8 hPa | 0 mm | - | 888 W/m² | - |
| 1787940739 | 34.44° C | 45% | 1011.7 hPa | 0 mm | - | 875 W/m² | - |
| 1787940437 | 34.44° C | 45% | 1011.9 hPa | 0 mm | - | 776 W/m² | - |
| 1787940132 | 33.89° C | 47% | 1011.8 hPa | 0 mm | - | 847 W/m² | - |
| 1787939832 | 34.44° C | 46% | 1011.8 hPa | 0 mm | - | 843 W/m² | - |
| 1787939531 | 34.44° C | 46% | 1011.9 hPa | 0 mm | - | 769 W/m² | - |
| 1787939227 | 33.89° C | 49% | 1011.8 hPa | 0 mm | - | 818 W/m² | - |
| 1787938927 | 33.89° C | 50% | 1011.9 hPa | 0 mm | - | 805 W/m² | - |
| 1787938626 | 33.89° C | 49% | 1011.9 hPa | 0 mm | - | 795 W/m² | - |
| 1787938322 | 33.33° C | 49% | 1011.8 hPa | 0 mm | - | 759 W/m² | - |
* Rain latest hour (hover to see other rain measurements)
** Current wind speed in m/s (hover to see current wind gust speed)